Weather History for Lawrence, KS

Change the Weather History Date:

Monday, October 7, 2013

  Actual Average Record
Temperature  
Mean Temperature 57 °F 59 °F  
Max Temperature 75 °F 72 °F 86 °F (2011)
Min Temperature 39 °F 46 °F 21 °F (2012)
Degree Days  
Heating Degree Days 8 7  
Month to date heating degree days 28 44  
Since 1 July heating degree days 51 107  
Cooling Degree Days 0 1  
Month to date cooling degree days 33 13  
Year to date cooling degree days 1489 1357  
Growing Degree Days 6 (Base 50)    
Moisture  
Dew Point 42 °F    
Average Humidity 61    
Maximum Humidity 89    
Minimum Humidity 33    
Precipitation  
Precipitation 0.00 in 0.12 in 0.59 in (2004)
Month to date precipitation 0.96 0.88  
Year to date precipitation 24.58 32.90  
Sea Level Pressure  
Sea Level Pressure 30.09 in    
Wind  
Wind Speed 5 mph (West)    
Max Wind Speed 12 mph    
Max Gust Speed 15 mph    
Visibility 10 miles    
Events      
T = Trace of Precipitation, MM = Missing Value Source: NWS Daily Summary

Daily Weather History Graph

Daily Weather History Graph

Search for Another Location

Airport:

Trip Planner

Search our weather history database for the weather conditions in past years. The results will help you decide how hot, cold, wet, or windy it might be!

Date:

Astronomy

Oct. 07, 2013 Rise Set
Actual Time 7:22 AM CDT 6:53 PM CDT
Civil Twilight 6:56 AM CDT 7:20 PM CDT
Nautical Twilight 6:25 AM CDT 7:51 PM CDT
Astronomical Twilight 5:54 AM CDT 8:22 PM CDT
Moon 10:12 AM CDT (10/7) 8:41 PM CDT (10/7)
Length of Visible Light 12h 24m
Length of Day
11h 30m
Waxing Crescent, 9% of the Moon is Illuminated
Oct 7
Waxing Crescent
Oct 11
First Quarter
Oct 18
Full
Oct 26
Last Quarter
Nov 3
New

Hourly Weather History & Observations

Time (CDT) Temp. Windchill Dew Point Humidity Pressure Visibility Wind Dir Wind Speed Gust Speed Precip Events Conditions
12:52 AM 44.1 °F 42.5 °F 39.9 °F 85% 30.02 in 10.0 mi NNW 3.5 mph - N/A   Clear
1:52 AM 44.1 °F 41.5 °F 41.0 °F 89% 30.04 in 10.0 mi NW 4.6 mph - N/A   Clear
2:52 AM 44.1 °F 41.5 °F 39.9 °F 85% 30.04 in 10.0 mi NW 4.6 mph - N/A   Clear
3:52 AM 43.0 °F 40.3 °F 37.9 °F 82% 30.05 in 10.0 mi NW 4.6 mph - N/A   Clear
4:52 AM 42.1 °F 37.1 °F 37.0 °F 82% 30.08 in 10.0 mi NNW 8.1 mph - N/A   Clear
5:52 AM 42.1 °F 37.7 °F 36.0 °F 79% 30.09 in 10.0 mi NW 6.9 mph - N/A   Clear
6:52 AM 39.0 °F 35.7 °F 36.0 °F 89% 30.11 in 10.0 mi NW 4.6 mph - N/A   Clear
7:52 AM 42.1 °F 38.4 °F 37.0 °F 82% 30.13 in 10.0 mi NNW 5.8 mph - N/A   Clear
8:52 AM 48.0 °F - 41.0 °F 77% 30.15 in 10.0 mi NW 5.8 mph - N/A   Clear
9:52 AM 55.0 °F - 42.1 °F 62% 30.16 in 10.0 mi WNW 8.1 mph - N/A   Clear
10:52 AM 60.1 °F - 42.1 °F 51% 30.16 in 10.0 mi Variable 5.8 mph - N/A   Clear
11:52 AM 64.9 °F - 42.1 °F 43% 30.16 in 10.0 mi Calm Calm - N/A   Clear
12:52 PM 68.0 °F - 42.1 °F 39% 30.14 in 10.0 mi SSW 8.1 mph - N/A   Clear
1:52 PM 71.1 °F - 43.0 °F 36% 30.12 in 10.0 mi SSW 6.9 mph - N/A   Clear
2:52 PM 73.9 °F - 43.0 °F 33% 30.09 in 10.0 mi West 6.9 mph - N/A   Clear
3:52 PM 73.9 °F - 43.0 °F 33% 30.08 in 10.0 mi SSW 6.9 mph - N/A   Clear
4:52 PM 73.9 °F - 43.0 °F 33% 30.06 in 10.0 mi SW 8.1 mph - N/A   Clear
5:52 PM 73.0 °F - 44.1 °F 35% 30.06 in 10.0 mi SSW 5.8 mph - N/A   Clear
6:52 PM 64.9 °F - 45.0 °F 48% 30.07 in 10.0 mi South 4.6 mph - N/A   Clear
7:52 PM 55.9 °F - 46.9 °F 72% 30.08 in 10.0 mi ESE 3.5 mph - N/A   Clear
8:52 PM 52.0 °F - 46.0 °F 80% 30.09 in 10.0 mi ESE 4.6 mph - N/A   Clear
9:52 PM 51.1 °F - 46.0 °F 83% 30.10 in 10.0 mi ESE 3.5 mph - N/A   Clear
10:52 PM 51.1 °F - 45.0 °F 80% 30.10 in 10.0 mi East 3.5 mph - N/A   Clear
11:52 PM 48.0 °F - 43.0 °F 83% 30.10 in 10.0 mi ESE 4.6 mph - N/A   Clear